Weather History for KLXN - February, 2013

Change the Weather History Date:

Saturday, February 2, 2013

  Actual Average Record
Temperature  
Mean Temperature 38 °F -  
Max Temperature 54 °F 37 °F 57 °F (2012)
Min Temperature 21 °F 16 °F -8 °F (2014)
Degree Days  
Heating Degree Days 28    
Moisture  
Dew Point 24 °F    
Average Humidity 62    
Maximum Humidity 94    
Minimum Humidity 26    
Precipitation  
Precipitation 0.00 in - - ()
Sea Level Pressure  
Sea Level Pressure 30.17 in    
Wind  
Wind Speed 13 mph (WNW)    
Max Wind Speed 32 mph    
Max Gust Speed 40 mph    
Visibility 10 miles    
Events      
Averages and records for this station are not official NWS values.
T = Trace of Precipitation, MM = Missing Value Source: NWS Daily Summary

Daily Weather History Graph

Daily Weather History Graph

Search for Another Location

Airport or City:

Trip Planner

Search our weather history database for the weather conditions in past years. The results will help you decide how hot, cold, wet, or windy it might be!

Date:

Astronomy

Feb. 02, 2013 Rise Set
Actual Time 7:47 AM CST 5:58 PM CST
Civil Twilight 7:19 AM CST 6:27 PM CST
Nautical Twilight 6:46 AM CST 6:59 PM CST
Astronomical Twilight 6:14 AM CST 7:32 PM CST
Moon 12:08 AM CST 10:56 AM CST
Length of Visible Light 11h 08m
Length of Day
10h 10m
Waning Gibbous, 59% of the Moon is Illuminated
Feb 2
Waning Gibbous
Feb 3
Last Quarter
Feb 10
New
Feb 17
First Quarter
Feb 25
Full

Hourly Weather History & Observations

Time (CST) Temp. Windchill Dew Point Humidity Pressure Visibility Wind Dir Wind Speed Gust Speed Precip Events Conditions
12:15 AM 30.6 °F 21.8 °F 26.6 °F 85% 30.11 in 10.0 mi WNW 10.4 mph - N/A   Clear
12:35 AM 30.2 °F 20.8 °F 27.0 °F 88% 30.12 in 10.0 mi WNW 11.5 mph - N/A   Clear
12:55 AM 30.2 °F 21.9 °F 27.3 °F 89% 30.12 in 10.0 mi WNW 9.2 mph - N/A   Clear
1:15 AM 31.6 °F 22.1 °F 28.9 °F 90% 30.12 in 10.0 mi WNW 12.7 mph - N/A   Clear
1:35 AM 31.8 °F 24.6 °F 28.4 °F 87% 30.12 in 10.0 mi WNW 8.1 mph - N/A   Clear
1:55 AM 29.8 °F 22.2 °F 27.3 °F 90% 30.13 in 10.0 mi WNW 8.1 mph - N/A   Scattered Clouds
2:15 AM 28.8 °F 20.9 °F 26.4 °F 91% 30.13 in 10.0 mi West 8.1 mph - N/A   Mostly Cloudy
2:35 AM 31.1 °F 23.7 °F 28.8 °F 91% 30.13 in 10.0 mi WNW 8.1 mph - N/A   Overcast
3:15 AM 29.7 °F 22.0 °F 27.1 °F 90% 30.12 in 10.0 mi West 8.1 mph - N/A   Mostly Cloudy
3:35 AM 27.3 °F 22.0 °F 25.3 °F 92% 30.14 in 10.0 mi WNW 4.6 mph - N/A   Clear
3:55 AM 28.2 °F 23.1 °F 26.6 °F 94% 30.15 in 10.0 mi West 4.6 mph - N/A   Clear
4:15 AM 26.1 °F 16.8 °F 24.3 °F 93% 30.14 in 10.0 mi West 9.2 mph - N/A   Clear
4:35 AM 28.4 °F 19.7 °F 26.4 °F 92% 30.14 in 10.0 mi West 9.2 mph - N/A   Clear
4:55 AM 27.9 °F 19.8 °F 25.5 °F 91% 30.14 in 10.0 mi West 8.1 mph - N/A   Clear
5:15 AM 26.1 °F 17.6 °F 23.9 °F 92% 30.15 in 10.0 mi WNW 8.1 mph - N/A   Clear
5:35 AM 23.5 °F 15.4 °F 21.6 °F 92% 30.15 in 10.0 mi WNW 6.9 mph - N/A   Clear
5:55 AM 21.6 °F 15.3 °F 19.8 °F 93% 30.15 in 10.0 mi WNW 4.6 mph - N/A   Clear
6:15 AM 22.8 °F 16.7 °F 21.4 °F 94% 30.15 in 10.0 mi WNW 4.6 mph - N/A   Clear
6:35 AM 21.2 °F 11.7 °F 19.4 °F 93% 30.16 in 10.0 mi NNW 8.1 mph - N/A   Clear
6:55 AM 25.9 °F 16.6 °F 24.3 °F 94% 30.17 in 10.0 mi WNW 9.2 mph - N/A   Clear
7:15 AM 26.6 °F 19.1 °F 24.6 °F 92% 30.17 in 10.0 mi NW 6.9 mph - N/A   Clear
7:35 AM 25.5 °F 19.9 °F 23.2 °F 91% 30.18 in 10.0 mi NW 4.6 mph - N/A   Clear
7:55 AM 28.4 °F 20.4 °F 26.1 °F 91% 30.18 in 10.0 mi WNW 8.1 mph - N/A   Clear
8:35 AM 30.2 °F 21.3 °F 27.3 °F 89% 30.18 in 10.0 mi WNW 10.4 mph - N/A   Clear
8:55 AM 31.6 °F 23.1 °F 28.4 °F 88% 30.18 in 10.0 mi WNW 10.4 mph - N/A   Clear
9:15 AM 33.8 °F 24.8 °F 30.2 °F 87% 30.19 in 10.0 mi WNW 12.7 mph - N/A   Clear
9:35 AM 37.0 °F 27.7 °F 31.6 °F 81% 30.19 in 10.0 mi WNW 16.1 mph - N/A   Clear
9:55 AM 39.2 °F 29.8 °F 31.8 °F 75% 30.19 in 10.0 mi WNW 18.4 mph - N/A   Clear
10:15 AM 40.1 °F 30.5 °F 31.5 °F 71% 30.19 in 10.0 mi WNW 20.7 mph 25.3 mph N/A   Clear
10:35 AM 41.4 °F 32.4 °F 31.1 °F 67% 30.20 in 10.0 mi WNW 19.6 mph - N/A   Clear
10:55 AM 43.2 °F 34.7 °F 30.6 °F 61% 30.20 in 10.0 mi WNW 19.6 mph - N/A   Clear
11:15 AM 45.1 °F 37.6 °F 29.8 °F 55% 30.20 in 10.0 mi WNW 18.4 mph 28.8 mph N/A   Clear
11:35 AM 46.8 °F - 28.8 °F 50% 30.19 in 10.0 mi WNW 20.7 mph 25.3 mph N/A   Clear
11:55 AM 48.6 °F - 27.5 °F 44% 30.19 in 10.0 mi WNW 21.9 mph - N/A   Clear
12:15 PM 50.2 °F - 25.9 °F 39% 30.18 in 10.0 mi WNW 18.4 mph - N/A   Clear
12:35 PM 50.9 °F - 26.4 °F 39% 30.18 in 10.0 mi WNW 21.9 mph 27.6 mph N/A   Clear
12:55 PM 51.8 °F - 25.7 °F 36% 30.17 in 10.0 mi WNW 24.2 mph 31.1 mph N/A   Clear
1:15 PM 53.4 °F - 23.5 °F 31% 30.15 in 10.0 mi WNW 28.8 mph 33.4 mph N/A   Clear
1:35 PM 54.0 °F - 21.2 °F 28% 30.14 in 10.0 mi WNW 27.6 mph 33.4 mph N/A   Clear
1:55 PM 54.3 °F - 21.0 °F 27% 30.14 in 10.0 mi WNW 23.0 mph 32.2 mph N/A   Clear
2:15 PM 54.5 °F - 20.3 °F 26% 30.13 in 10.0 mi NW 24.2 mph 31.1 mph N/A   Clear
2:35 PM 54.7 °F - 20.3 °F 26% 30.13 in 10.0 mi WNW 31.1 mph 35.7 mph N/A   Clear
2:55 PM 54.5 °F - 20.3 °F 26% 30.13 in 10.0 mi WNW 25.3 mph 34.5 mph N/A   Clear
3:15 PM 54.5 °F - 21.2 °F 27% 30.12 in 10.0 mi NW 25.3 mph 32.2 mph N/A   Clear
3:35 PM 54.5 °F - 21.2 °F 27% 30.12 in 10.0 mi WNW 28.8 mph 35.7 mph N/A   Clear
3:55 PM 54.5 °F - 21.2 °F 27% 30.12 in 10.0 mi WNW 31.1 mph 38.0 mph N/A   Clear
4:15 PM 54.1 °F - 19.6 °F 26% 30.13 in 10.0 mi NW 32.2 mph 40.3 mph N/A   Clear
4:35 PM 53.8 °F - 19.4 °F 26% 30.13 in 10.0 mi NW 31.1 mph 38.0 mph N/A   Clear
4:55 PM 52.7 °F - 18.9 °F 26% 30.14 in 10.0 mi NW 21.9 mph 32.2 mph N/A   Clear
5:15 PM 51.8 °F - 18.7 °F 27% 30.15 in 10.0 mi NW 26.5 mph 34.5 mph N/A   Clear
5:35 PM 50.2 °F - 19.4 °F 30% 30.15 in 10.0 mi NNW 19.6 mph 29.9 mph N/A   Clear
5:55 PM 47.5 °F - 19.4 °F 33% 30.15 in 10.0 mi NW 13.8 mph - N/A   Clear
6:15 PM 46.6 °F - 20.3 °F 35% 30.16 in 10.0 mi NW 17.3 mph 23.0 mph N/A   Clear
6:35 PM 43.7 °F 38.1 °F 21.0 °F 41% 30.16 in 10.0 mi WNW 10.4 mph - N/A   Clear
6:55 PM 41.4 °F 36.2 °F 21.2 °F 45% 30.17 in 10.0 mi WNW 8.1 mph - N/A   Clear
7:15 PM 41.0 °F 33.5 °F 21.6 °F 46% 30.18 in 10.0 mi WNW 13.8 mph - N/A   Clear
7:35 PM 39.2 °F 32.0 °F 21.4 °F 49% 30.18 in 10.0 mi WNW 11.5 mph - N/A   Clear
7:55 PM 37.8 °F 29.8 °F 21.7 °F 53% 30.18 in 10.0 mi WNW 12.7 mph - N/A   Clear
8:15 PM 36.7 °F 28.4 °F 21.6 °F 54% 30.19 in 10.0 mi WNW 12.7 mph - N/A   Clear
8:35 PM 38.1 °F 29.8 °F 21.9 °F 52% 30.19 in 10.0 mi WNW 13.8 mph - N/A   Clear
8:55 PM 40.1 °F 32.0 °F 22.8 °F 50% 30.20 in 10.0 mi WNW 15.0 mph - N/A   Clear
9:15 PM 37.8 °F 29.4 °F 23.0 °F 55% 30.20 in 10.0 mi WNW 13.8 mph - N/A   Clear
9:35 PM 38.5 °F 29.2 °F 23.9 °F 56% 30.21 in 10.0 mi WNW 17.3 mph - N/A   Clear
9:55 PM 39.2 °F 30.8 °F 23.9 °F 54% 30.22 in 10.0 mi WNW 15.0 mph - N/A   Clear
10:15 PM 37.8 °F 29.4 °F 23.5 °F 57% 30.23 in 10.0 mi WNW 13.8 mph - N/A   Clear
10:35 PM 37.0 °F 28.5 °F 23.7 °F 59% 30.23 in 10.0 mi NW 13.8 mph - N/A   Clear
10:55 PM 35.2 °F 27.1 °F 23.5 °F 62% 30.24 in 10.0 mi WNW 11.5 mph - N/A   Clear
11:15 PM 34.0 °F 26.0 °F 23.7 °F 66% 30.24 in 10.0 mi NW 10.4 mph - N/A   Clear
11:35 PM 33.4 °F 25.4 °F 23.7 °F 68% 30.24 in 10.0 mi WNW 10.4 mph - N/A   Clear
11:55 PM 31.8 °F 23.9 °F 23.2 °F 70% 30.24 in 10.0 mi WNW 9.2 mph - N/A   Clear